Regional Weather Roundup
Issued by NWS

Home | Current Version | Previous Version | Text Only | Print | Product List | Glossary Off
Versions: 1 2 3 4 5 6 7 8 9 10 11 12 13 14 15 16 17 18 19 20 21 22 23 24 25 26 27 28 29 30 31 32 33 34 35 36 37 38 39 40 41 42 43 44 45 46 47 48 49 50

384
ASUS43 KIND 071859
RWRIN

WEATHER ROUNDUP FOR INDIANA
NATIONAL WEATHER SERVICE INDIANAPOLIS IN
200 PM EST WED DEC 07 2016

NOTE: "FAIR" INDICATES FEW OR NO CLOUDS BELOW 12,000 FEET WITH NO
SIGNIFICANT WEATHER AND/OR OBSTRUCTIONS TO VISIBILITY.

* - STATION DOES NOT REPORT WEATHER SUCH AS PRECIPITATION OR FOG.

+ - STATION NOT QUALITY CONTROLLED BY THE NATIONAL WEATHER SERVICE.
    USE DATA WITH CAUTION...ESPECIALLY DEWPOINT AND RELATIVE
    HUMIDITY OBSERVATIONS.

INZ001>003-010>013-019-020-072000-
NORTHWEST INDIANA

CITY           SKY/WX    TMP DP  RH WIND       PRES   REMARKS
GARY /AIRPORT/ PTSUNNY   32  21  64 SW12      30.10S WCI  23
MONTICELLO +   PTSUNNY   33  20  58 SW10      30.11S WCI  25
RENSSELAER +   SUNNY     32  27  80 W10G18    30.12R WCI  24

$$

LMZ046-743>745-072000-
SOUTHERN LAKE MICHIGAN

STATION/POSITION TIME  TEMP    WIND        PRES    WAVE
                       AIR SEA DIR/SP/G            HT
                 (UTC) (F)     (DEG/KT/KT) (MB)    (FT)
BURNS HARBOR     1840   30     230/ 10/ 17 1019.0F
MICHIGAN CITY    1830   30     190/ 13/ 15   N/A

$$

INZ004-005-014>016-021>024-072000-
NORTH CENTRAL INDIANA

CITY           SKY/WX    TMP DP  RH WIND       PRES   REMARKS
ELKHART        SUNNY     34  21  60 SW12      30.05F WCI  25
GOSHEN         PTSUNNY   34  21  59 SW14      30.05F WCI  25
SOUTH BEND     CLOUDY    31  22  69 SW13      30.07F WCI  21

$$

INZ006>009-017-018-025>027-072000-
NORTHEAST INDIANA

CITY           SKY/WX    TMP DP  RH WIND       PRES   REMARKS
ANGOLA *+      SUNNY     34  21  60 SW14      30.03F WCI  24
FORT WAYNE     PTSUNNY   35  23  61 W15       30.08F WCI  25
KENDALLVILLE + MOSUNNY   33  23  67 SW14      30.05F WCI  23

$$

INZ028-029-035-036-043>045-051>053-072000-
WEST CENTRAL INDIANA

CITY           SKY/WX    TMP DP  RH WIND       PRES   REMARKS
CRAWFORDSVL +  PTSUNNY   34  25  70 SW12      30.12F WCI  25
GREENCASTLE +  CLOUDY    36  25  64 SW5       30.14S
LAFAYETTE      MOSUNNY   33  22  63 W10       30.13S WCI  25
TERRE HAUTE    CLOUDY    36  20  52 SW9       30.16F

$$

INZ030>032-037>040-046>048-054>057-064-065-072000-
CENTRAL INDIANA

CITY           SKY/WX    TMP DP  RH WIND       PRES   REMARKS
COLUMBUS       CLOUDY    36  25  64 CALM      30.15F
GREENWOOD *+   PTSUNNY   37  23  58 W6        30.14F
INDIANAPOLIS   PTSUNNY   36  22  56 SW10      30.12F
-EAGLE CREEK   PTSUNNY   38  20  48 VRB6      30.11F
KOKOMO +       PTSUNNY   35  23  61 W12       30.10F WCI  27
SHELBYVILLE    MOSUNNY   36  23  59 W6        30.12F

$$

INZ033-034-041-042-049-050-058-059-072000-
EAST CENTRAL INDIANA

CITY           SKY/WX    TMP DP  RH WIND       PRES   REMARKS
MUNCIE         SUNNY     36  21  54 W9        30.09F

$$

INZ060-061-067>069-081>083-085>088-072000-
SOUTHWEST INDIANA

CITY           SKY/WX    TMP DP  RH WIND       PRES   REMARKS
EVANSVILLE     CLOUDY    42  20  41 NW3       30.19F
HUNTINGBURG *+ CLOUDY    39  22  50 CALM      30.17F

$$

INZ062-063-066-070>080-084-089>092-072000-
SOUTH CENTRAL AND SOUTHEAST INDIANA

CITY           SKY/WX    TMP DP  RH WIND       PRES   REMARKS
BLOOMINGTON    CLOUDY    35  21  56 W5        30.14F WCI  31
MADISON *+     CLOUDY    37  21  52 W6        30.16F
SEYMOUR +      CLOUDY    39  25  56 W5        30.15F

$$





USA.gov is the U.S. government's official web portal to all federal, state and local government web resources and services.